KB4KY Weather Reports


Display with metric or nautical units.
time (UTC)temp
F
wind
direction
speed
MPH
gust
MPH
rain 1hr
in
rain 24hr
in
rain mn
in
humidity
%
barometer
mb
20260905234332 81 18 0.0 0.0 0.02 0.02 0.02 81 1011.2
20260905233830 81 18 0.0 0.0 0.02 0.02 0.02 80 1011.3
20260905233342 82 18 0.0 0.0 0.02 0.02 0.02 77 1011.2
20260905232829 85 18 0.0 0.0 0.02 0.02 0.02 73 1010.9
20260905232330 87 18 0.0 0.0 0.02 0.02 0.02 66 1011.0
20260905231828 93 18 0.0 0.0 0.02 0.02 0.02 58 1010.9
20260905231334 95 18 0.0 0.0 0.01 0.01 0.01 53 1010.8
20260905230828 96 18 0.0 0.0 0.00 0.00 0.00 47 1010.7
20260905225827 97 18 0.0 0.0 0.00 0.00 0.00 44 1010.6
20260905225336 97 18 0.0 0.0 0.00 0.00 0.00 44 1010.3
20260905225330 97 18 0.0 0.0 0.00 0.00 0.00 44 1010.3
20260905224832 97 18 0.0 0.0 0.00 0.00 0.00 44 1010.2
20260905224330 96 18 0.0 0.0 0.00 0.00 0.00 44 1010.3
20260905223832 97 18 0.0 0.0 0.00 0.00 0.00 43 1010.3
20260905223334 97 18 0.0 0.0 0.00 0.00 0.00 41 1010.4
20260905222828 97 18 0.0 0.0 0.00 0.00 0.00 42 1010.2
20260905222327 97 18 0.0 0.0 0.00 0.00 0.00 42 1010.1
20260905221827 97 18 0.0 0.0 0.00 0.00 0.00 43 1010.2
20260905221326 97 18 0.0 0.0 0.00 0.00 0.00 42 1010.2
20260905220828 98 18 0.0 0.0 0.00 0.00 0.00 42 1010.1
20260905215329 97 18 0.0 0.0 0.00 0.00 0.00 42 1010.3
20260905214827 96 18 0.0 0.0 0.00 0.00 0.00 43 1010.4
20260905214323 96 18 0.0 0.0 0.00 0.00 0.00 43 1010.3
20260905213824 96 18 0.0 0.0 0.00 0.00 0.00 43 1010.3
20260905213335 96 18 0.0 0.0 0.00 0.00 0.00 43 1010.4
20260905212824 97 18 0.0 0.0 0.00 0.00 0.00 42 1010.3
20260905212322 97 18 0.0 0.0 0.00 0.00 0.00 42 1010.3
20260905211824 98 18 0.0 0.0 0.00 0.00 0.00 40 1010.3
20260905211325 98 18 0.0 0.0 0.00 0.00 0.00 41 1010.4
20260905210830 98 18 0.0 0.0 0.00 0.00 0.00 41 1010.4
20260905210320 98 18 0.0 0.0 0.00 0.00 0.00 41 1010.5
20260905205824 98 18 0.0 0.0 0.00 0.00 0.00 40 1010.5
20260905204819 97 18 0.0 0.0 0.00 0.00 0.00 41 1010.5
20260905204322 97 18 0.0 0.0 0.00 0.00 0.00 41 1010.5
20260905203819 97 18 0.0 0.0 0.00 0.00 0.00 42 1010.5
20260905202818 97 18 0.0 0.0 0.00 0.00 0.00 42 1010.6
20260905201818 97 18 0.0 0.0 0.00 0.00 0.00 42 1010.8
20260905201317 97 18 0.0 0.0 0.00 0.00 0.00 41 1010.8
20260905200817 98 18 0.0 0.0 0.00 0.00 0.00 40 1010.9
20260905200322 97 18 0.0 0.0 0.00 0.00 0.00 42 1010.9
20260905195818 97 18 0.0 0.0 0.00 0.00 0.00 41 1011.0
20260905195316 96 18 0.0 0.0 0.00 0.00 0.00 43 1011.2
20260905194827 96 18 0.0 0.0 0.00 0.00 0.00 42 1011.3
20260905194323 96 18 0.0 0.0 0.00 0.00 0.00 42 1011.3
20260905194316 96 18 0.0 0.0 0.00 0.00 0.00 42 1011.3
20260905193816 96 18 0.0 0.0 0.00 0.00 0.00 42 1011.4
20260905193338 96 18 0.0 0.0 0.00 0.00 0.00 43 1011.5
20260905192815 96 18 0.0 0.0 0.00 0.00 0.00 43 1011.5
20260905192315 96 18 0.0 0.0 0.00 0.00 0.00 44 1011.5
20260905191818 95 18 0.0 0.0 0.00 0.00 0.00 45 1011.6
20260905191314 94 18 0.0 0.0 0.00 0.00 0.00 45 1011.6
20260905190814 94 18 0.0 0.0 0.00 0.00 0.00 45 1011.7
20260905190316 94 18 0.0 0.0 0.00 0.00 0.00 44 1011.8
20260905185817 94 18 0.0 0.0 0.00 0.00 0.00 46 1011.9
20260905185313 94 18 0.0 0.0 0.00 0.00 0.00 46 1011.9
20260905184812 93 18 0.0 0.0 0.00 0.00 0.00 47 1012.0
20260905184312 93 18 0.0 0.0 0.00 0.00 0.00 46 1012.1
20260905183816 94 18 0.0 0.0 0.00 0.00 0.00 46 1012.2
20260905183334 94 18 0.0 0.0 0.00 0.00 0.00 45 1012.1
20260905182813 94 18 0.0 0.0 0.00 0.00 0.00 45 1012.2
20260905182311 94 18 0.0 0.0 0.00 0.00 0.00 46 1012.3
20260905181811 93 18 0.0 0.0 0.00 0.00 0.00 47 1012.4
20260905181310 93 18 0.0 0.0 0.00 0.00 0.00 48 1012.5
20260905180810 93 18 0.0 0.0 0.00 0.00 0.00 48 1012.5
20260905180312 94 18 0.0 0.0 0.00 0.00 0.00 47 1012.5
20260905175811 93 18 0.0 0.0 0.00 0.00 0.00 48 1012.6
20260905175309 92 18 0.0 0.0 0.00 0.00 0.00 48 1012.7
20260905174309 91 18 0.0 0.0 0.00 0.00 0.00 51 1012.7
20260905173812 91 18 0.0 0.0 0.00 0.00 0.00 49 1012.7
20260905172810 90 18 0.0 0.0 0.00 0.00 0.00 51 1012.7
20260905172308 90 18 0.0 0.0 0.00 0.00 0.00 50 1012.8
20260905171807 90 18 0.0 0.0 0.00 0.00 0.00 49 1012.8
20260905171307 89 18 0.0 0.0 0.00 0.00 0.00 52 1012.9
20260905170813 89 18 0.0 0.0 0.00 0.00 0.00 51 1013.0
20260905170306 89 18 0.0 0.0 0.00 0.00 0.00 55 1013.1
20260905165810 89 18 0.0 0.0 0.00 0.00 0.00 54 1013.1
20260905165306 89 18 0.0 0.0 0.00 0.00 0.00 52 1013.2
20260905164806 89 18 0.0 0.0 0.00 0.00 0.00 53 1013.2
20260905164306 88 18 0.0 0.0 0.00 0.00 0.00 55 1013.2
20260905163805 87 18 0.0 0.0 0.00 0.00 0.00 54 1013.2
20260905163305 87 18 0.0 0.0 0.00 0.00 0.00 57 1013.0
20260905162804 87 18 0.0 0.0 0.00 0.00 0.00 56 1012.9
20260905162307 86 18 0.0 0.0 0.00 0.00 0.00 56 1012.9
20260905161815 86 18 0.0 0.0 0.00 0.00 0.00 57 1013.0
20260905161804 86 18 0.0 0.0 0.00 0.00 0.00 57 1013.0
20260905161304 85 18 0.0 0.0 0.00 0.00 0.00 59 1013.2
20260905160803 85 18 0.0 0.0 0.00 0.00 0.00 61 1013.3
20260905160303 85 18 0.0 0.0 0.00 0.00 0.00 62 1013.5
20260905155803 85 18 0.0 0.0 0.00 0.00 0.00 63 1013.6
20260905155306 85 18 0.0 0.0 0.00 0.00 0.00 62 1013.9
20260905154802 85 18 0.0 0.0 0.00 0.00 0.00 63 1013.8
20260905154302 84 18 0.0 0.0 0.00 0.00 0.00 65 1013.7
20260905153801 83 18 0.0 0.0 0.00 0.00 0.00 66 1013.7
20260905153301 83 18 0.0 0.0 0.00 0.00 0.00 65 1013.9
20260905152801 83 18 0.0 0.0 0.00 0.00 0.00 67 1013.9
20260905152301 82 18 0.0 0.0 0.00 0.00 0.00 68 1014.0
20260905151801 82 18 0.0 0.0 0.00 0.00 0.00 70 1014.0
20260905151304 82 18 0.0 0.0 0.00 0.00 0.00 69 1014.2
20260905150800 82 18 0.0 0.0 0.00 0.00 0.00 69 1014.2
20260905150259 81 18 0.0 0.0 0.00 0.00 0.00 71 1014.1
20260905145759 81 18 0.0 0.0 0.00 0.00 0.00 72 1014.0
20260905145259 80 18 0.0 0.0 0.00 0.00 0.00 71 1014.3
20260905144759 80 18 0.0 0.0 0.00 0.00 0.00 72 1014.4
20260905144258 79 18 0.0 0.0 0.00 0.00 0.00 75 1014.2
20260905143758 77 18 0.0 0.0 0.00 0.00 0.00 78 1014.2
20260905143258 77 18 0.0 0.0 0.00 0.00 0.00 79 1014.1
20260905142803 77 18 0.0 0.0 0.00 0.00 0.00 80 1014.2
20260905142259 77 18 0.0 0.0 0.00 0.00 0.00 79 1014.4
20260905141758 77 18 0.0 0.0 0.00 0.00 0.00 80 1014.3
20260905141257 77 18 0.0 0.0 0.00 0.00 0.00 78 1014.3
20260905140759 78 18 0.0 0.0 0.00 0.00 0.00 78 1014.5
20260905140256 78 18 0.0 0.0 0.00 0.00 0.00 77 1014.7
20260905135800 78 18 0.0 0.0 0.00 0.00 0.00 76 1015.1
20260905135258 79 18 0.0 0.0 0.00 0.00 0.00 76 1015.2
20260905134756 80 18 0.0 0.0 0.00 0.00 0.00 75 1015.1
20260905134256 80 18 0.0 0.0 0.00 0.00 0.00 76 1014.8
20260905133755 80 18 0.0 0.0 0.00 0.00 0.00 75 1014.7
20260905133301 79 18 0.0 0.0 0.00 0.00 0.00 75 1014.6
20260905132758 79 18 0.0 0.0 0.00 0.00 0.00 77 1014.5
20260905132255 78 18 0.0 0.0 0.00 0.00 0.00 79 1014.4
20260905131754 77 18 0.0 0.0 0.00 0.00 0.00 83 1014.4
20260905131253 77 18 0.0 0.0 0.00 0.00 0.00 82 1014.4
20260905130753 76 18 0.0 0.0 0.00 0.00 0.00 84 1014.4
20260905130307 76 18 0.0 0.0 0.00 0.00 0.00 85 1014.4
20260905125756 76 18 0.0 0.0 0.00 0.00 0.00 85 1014.4
20260905125252 76 18 0.0 0.0 0.00 0.00 0.00 85 1013.9
20260905124759 76 18 0.0 0.0 0.00 0.00 0.00 86 1014.0
20260905124254 76 18 0.0 0.0 0.00 0.00 0.00 85 1014.1
20260905123752 76 18 0.0 0.0 0.00 0.00 0.00 85 1014.2
20260905123256 76 18 0.0 0.0 0.00 0.00 0.00 85 1014.2
20260905122803 76 18 0.0 0.0 0.00 0.00 0.00 86 1014.3
20260905122250 76 18 0.0 0.0 0.00 0.00 0.00 86 1014.2
20260905121750 76 18 0.0 0.0 0.00 0.00 0.00 87 1014.1
20260905121339 76 18 0.0 0.0 0.00 0.00 0.00 88 1014.0
20260905121308 76 18 0.0 0.0 0.00 0.00 0.00 88 1014.0
20260905120756 75 18 0.0 0.0 0.00 0.00 0.00 89 1013.9
20260905120251 75 18 0.0 0.0 0.00 0.00 0.00 90 1013.7
20260905115753 75 18 0.0 0.0 0.00 0.00 0.00 91 1013.6
20260905114753 75 18 0.0 0.0 0.00 0.00 0.00 93 1013.7
20260905114250 75 18 0.0 0.0 0.00 0.00 0.00 93 1013.7
20260905113800 75 18 0.0 0.0 0.00 0.00 0.00 94 1013.6
20260905112806 75 18 0.0 0.0 0.00 0.00 0.00 93 1013.2
20260905112248 75 18 0.0 0.0 0.00 0.00 0.00 93 1013.0
20260905111756 75 18 0.0 0.0 0.00 0.00 0.00 92 1012.9
20260905111257 75 18 0.0 0.0 0.00 0.00 0.00 92 1012.8
20260905110749 75 18 0.0 0.0 0.00 0.00 0.00 92 1012.8
20260905110332 75 18 0.0 0.0 0.00 0.00 0.00 91 1012.8
20260905110251 75 18 0.0 0.0 0.00 0.00 0.00 91 1012.8
20260905104757 76 18 0.0 0.0 0.00 0.00 0.00 91 1012.6
20260905104253 76 18 0.0 0.0 0.00 0.00 0.00 91 1012.5
20260905103751 76 18 0.0 0.0 0.00 0.00 0.00 91 1012.3
20260905103304 76 18 0.0 0.0 0.00 0.00 0.00 91 1012.3
20260905102747 76 18 0.0 0.0 0.00 0.00 0.00 90 1012.3
20260905102300 76 18 0.0 0.0 0.00 0.00 0.00 91 1012.3
20260905100752 76 18 0.0 0.0 0.00 0.00 0.00 91 1012.5
20260905100343 76 18 0.0 0.0 0.00 0.00 0.00 92 1012.8
20260905100246 76 18 0.0 0.0 0.00 0.00 0.00 92 1012.8
20260905094242 75 18 0.0 0.0 0.00 0.00 0.00 91 1012.1
20260905093806 76 18 0.0 0.0 0.00 0.00 0.00 91 1012.1
20260905093351 76 18 0.0 0.0 0.00 0.00 0.00 90 1011.9
20260905093317 76 18 0.0 0.0 0.00 0.00 0.00 90 1011.9
20260905092757 76 18 0.0 0.0 0.00 0.00 0.00 89 1011.8
20260905092256 76 18 0.0 0.0 0.00 0.00 0.00 90 1011.7
20260905091742 76 18 0.0 0.0 0.00 0.00 0.00 90 1011.6
20260905091348 76 18 0.0 0.0 0.00 0.00 0.00 90 1011.5
20260905091316 76 18 0.0 0.0 0.00 0.00 0.00 90 1011.5
20260905090740 76 18 0.0 0.0 0.00 0.00 0.00 90 1011.5
20260905090253 76 18 0.0 0.0 0.00 0.00 0.00 89 1011.5
20260905085739 76 18 0.0 0.0 0.00 0.00 0.00 90 1011.6
20260905085245 76 18 0.0 0.0 0.00 0.00 0.00 90 1011.6
20260905084804 76 18 0.0 0.0 0.00 0.00 0.00 90 1011.6
20260905084251 77 18 0.0 0.0 0.00 0.00 0.00 88 1011.8
20260905083816 77 18 0.0 0.0 0.00 0.00 0.00 89 1011.7
20260905083743 77 18 0.0 0.0 0.00 0.00 0.00 89 1011.7
20260905082742 77 18 0.0 0.0 0.00 0.00 0.00 88 1011.8
20260905082254 77 18 0.0 0.0 0.00 0.00 0.00 88 1011.8
20260905081739 77 18 0.0 0.0 0.00 0.00 0.00 88 1011.9
20260905081250 77 18 0.0 0.0 0.00 0.00 0.00 88 1011.9
20260905080750 77 18 0.0 0.0 0.00 0.00 0.00 88 1011.8
20260905080247 77 18 0.0 0.0 0.00 0.00 0.00 88 1011.7
20260905075735 77 18 0.0 0.0 0.00 0.00 0.00 89 1011.9
20260905075247 77 18 0.0 0.0 0.00 0.00 0.00 89 1011.9
20260905074739 77 18 0.0 0.0 0.00 0.00 0.00 88 1011.9
20260905072243 77 18 0.0 0.0 0.00 0.00 0.00 88 1011.9
20260905071738 77 18 0.0 0.0 0.00 0.00 0.00 89 1012.1
20260905070744 77 18 0.0 0.0 0.00 0.00 0.00 89 1012.2
20260905070237 76 18 0.0 0.0 0.00 0.00 0.00 89 1012.3
20260905065748 76 18 0.0 0.0 0.00 0.00 0.00 90 1012.4
20260905065739 76 18 0.0 0.0 0.00 0.00 0.00 90 1012.4
20260905065232 76 18 0.0 0.0 0.00 0.00 0.00 90 1012.5
20260905064803 76 18 0.0 0.0 0.00 0.00 0.00 90 1012.5
20260905064732 76 18 0.0 0.0 0.00 0.00 0.00 90 1012.5
20260905062740 78 18 0.0 0.0 0.00 0.00 0.00 87 1012.6
20260905061241 78 18 0.0 0.0 0.00 0.00 0.00 86 1012.8
20260905060742 78 18 0.0 0.0 0.00 0.00 0.00 86 1012.9
20260905060233 78 18 0.0 0.0 0.00 0.00 0.00 86 1013.0
20260905055730 79 18 0.0 0.0 0.00 0.00 0.00 85 1013.0
20260905055231 79 18 0.0 0.0 0.00 0.00 0.00 85 1013.1
20260905054743 79 18 0.0 0.0 0.00 0.00 0.00 86 1013.1
20260905054234 79 18 0.0 0.0 0.00 0.00 0.00 86 1013.2
20260905053728 79 18 0.0 0.0 0.00 0.00 0.00 86 1013.2
20260905053300 79 18 0.0 0.0 0.00 0.00 0.00 85 1013.2
20260905053229 79 18 0.0 0.0 0.00 0.00 0.00 85 1013.2
20260905052239 79 18 0.0 0.0 0.00 0.00 0.00 85 1013.2
20260905051734 79 18 0.0 0.0 0.00 0.00 0.00 85 1013.2
20260905051228 79 18 0.0 0.0 0.00 0.00 0.00 84 1013.3
20260905050752 80 18 0.0 0.0 0.00 0.00 0.00 84 1013.3
20260905050303 79 18 0.0 0.0 0.00 0.00 0.00 83 1013.4
20260905050228 79 18 0.0 0.0 0.00 0.00 0.00 83 1013.4
20260905045724 79 18 0.0 0.0 0.00 0.00 0.00 83 1013.4
20260905045224 79 18 0.0 0.0 0.00 0.00 0.00 83 1013.3
20260905044726 79 18 0.0 0.0 0.00 0.00 0.00 83 1013.4
20260905044242 79 18 0.0 0.0 0.00 0.00 0.00 84 1013.5
20260905043730 79 18 0.0 0.0 0.00 0.00 0.00 84 1013.4
20260905043232 79 18 0.0 0.0 0.00 0.00 0.00 84 1013.3
20260905042728 79 18 0.0 0.0 0.00 0.00 0.00 84 1013.3
20260905042222 80 18 0.0 0.0 0.00 0.00 0.00 84 1013.3
20260905041726 80 18 0.0 0.0 0.00 0.00 0.00 83 1013.3
20260905041222 80 18 0.0 0.0 0.00 0.00 0.00 82 1013.3
20260905040724 80 18 0.0 0.0 0.00 0.00 0.00 81 1013.3
20260905040222 80 18 0.0 0.0 0.00 0.00 0.00 81 1013.2
20260905035728 80 18 0.0 0.0 0.00 0.00 0.00 81 1013.2
20260905035221 80 18 0.0 0.0 0.00 0.00 0.00 81 1013.3
20260905034724 80 18 0.0 0.0 0.00 0.00 0.00 81 1013.3
20260905034228 81 18 0.0 0.0 0.00 0.00 0.00 81 1013.4
20260905034220 81 18 0.0 0.0 0.00 0.00 0.00 81 1013.4
20260905033727 81 18 0.0 0.0 0.00 0.00 0.00 80 1013.4
20260905033220 80 18 0.0 0.0 0.00 0.00 0.00 80 1013.4
20260905032722 80 18 0.0 0.0 0.00 0.00 0.00 81 1013.4
20260905032219 80 18 0.0 0.0 0.00 0.00 0.00 81 1013.4
20260905031719 80 18 0.0 0.0 0.00 0.00 0.00 81 1013.4
20260905031218 80 18 0.0 0.0 0.00 0.00 0.00 81 1013.5
20260905030729 81 18 0.0 0.0 0.00 0.00 0.00 81 1013.5
20260905030218 81 18 0.0 0.0 0.00 0.00 0.00 81 1013.4
20260905025721 81 18 0.0 0.0 0.00 0.00 0.00 80 1013.5
20260905024722 82 18 0.0 0.0 0.00 0.00 0.00 80 1013.3
20260905024217 82 18 0.0 0.0 0.00 0.00 0.00 77 1013.2
20260905023724 82 18 0.0 0.0 0.00 0.00 0.00 77 1013.3
20260905023219 82 18 0.0 0.0 0.00 0.00 0.00 76 1013.3
20260905022216 83 18 0.0 0.0 0.00 0.00 0.00 75 1013.3
20260905021717 82 18 0.0 0.0 0.00 0.00 0.00 75 1013.3
20260905021216 82 18 0.0 0.0 0.00 0.00 0.00 74 1013.3
20260905020715 82 18 0.0 0.0 0.00 0.00 0.00 74 1013.2
20260905020218 83 18 0.0 0.0 0.00 0.00 0.00 75 1013.3
20260905015716 83 18 0.0 0.0 0.00 0.00 0.00 76 1013.2
20260905015214 83 18 0.0 0.0 0.00 0.00 0.00 75 1013.2
20260905014714 83 18 0.0 0.0 0.00 0.00 0.00 73 1013.2
20260905014218 83 18 0.0 0.0 0.00 0.00 0.00 73 1013.1
20260905013720 83 18 0.0 0.0 0.00 0.00 0.00 74 1013.1
20260905013214 84 18 0.0 0.0 0.00 0.00 0.00 76 1013.1
20260905012717 85 18 0.0 0.0 0.00 0.00 0.00 71 1013.1
20260905012213 85 18 0.0 0.0 0.00 0.00 0.00 70 1013.1
20260905011713 86 18 0.0 0.0 0.00 0.00 0.00 69 1013.1
20260905011212 86 18 0.0 0.0 0.00 0.00 0.00 68 1013.0
20260905010715 86 18 0.0 0.0 0.00 0.00 0.00 67 1012.9
20260905010213 86 18 0.0 0.0 0.00 0.00 0.00 66 1012.8
20260905005722 87 18 0.0 0.0 0.00 0.00 0.00 65 1012.8
20260905005214 87 18 0.0 0.0 0.00 0.00 0.00 64 1012.7
20260905004711 88 18 0.0 0.0 0.00 0.00 0.00 63 1012.6
20260905004211 88 18 0.0 0.0 0.00 0.00 0.00 62 1012.5
20260905003714 88 18 0.0 0.0 0.00 0.00 0.00 61 1012.5
20260905003216 89 18 0.0 0.0 0.00 0.00 0.00 61 1012.4
20260905002710 89 18 0.0 0.0 0.00 0.00 0.00 60 1012.4
20260905002211 90 18 0.0 0.0 0.00 0.00 0.00 59 1012.4
20260905001708 91 18 0.0 0.0 0.00 0.00 0.00 58 1012.5
20260905001209 92 18 0.0 0.0 0.00 0.00 0.00 57 1012.5
20260905000709 93 18 0.0 0.0 0.00 0.00 0.00 55 1012.5
20260905000215 94 18 0.0 0.0 0.00 0.00 0.00 53 1012.7
20260904235709 94 18 0.0 0.0 0.00 0.00 0.00 53 1012.7
20260904235208 94 18 0.0 0.0 0.00 0.00 0.00 53 1012.6